Location: Ferchesar
(52.6477°N, 12.4298°E)
Time: 12:43:12
(UTC+01:00)

Altair - Pass Details

Date: 12 December 2021
Orbit: 1501 x 1683 km, 47.2° (Epoch: 20 January)

Event Time Altitude Azimuth Distance (km) Brightness Sun altitude
Rises 21:16:11 0° 283° (WNW) 4,679 10.7 -46.6°
Reaches altitude 10° 21:21:41 10° 257° (WSW) 3,667 9.8 -47.4°
Maximum altitude 21:25:01 12° 235° (SW) 3,458 9.5 -47.8°
Enters shadow 21:26:21 12° 226° (SW) 3,486 9.4 -48.0°
